Flag for U.S.A. Weather past 2 weeks in Anchorage, Alaska, U.S.A.

Now
29 °F

Ice fog.


Feels Like: 25 °F
Forecast: 20 / 34 °F
Wind: 3 mph from North

Location: Lake Hood Seaplane

Current Time: Mar 1, 2015 at 6:13:25 AM

Latest Report: Mar 1, 2015 at 5:53 AM


Visibility: 0 mi

Pressure: 30.54 "Hg

Humidity: 85%

Dew point: 25 °F

Location of AnchorageLocation

Historic Weather in Anchorage — Graph

°F

Anchorage temperature yesterday

Maximum temperature yesterday: 32 °F (at 1:53 PM)
Minimum temperature yesterday: 27 °F (at 2:53 AM)
Average temperature yesterday: 29 °F

Past Weeks' High & Low Weather Summary

 TemperatureHumidityPressure
High45 °F (Feb 17, 10:53 AM)100% (Feb 21, 12:53 PM)30.58 "Hg (Feb 21, 12:53 PM)
Low14 °F (Feb 27, 6:53 AM)45% (Feb 17, 10:53 AM)29.54 "Hg (Feb 16, 3:53 PM)
Average32 °F76%30.13 "Hg
* Reported Feb 14 4:53 AM — Mar 1 4:53 AM, Anchorage, Weather by CustomWeather, © 2015

Note: Actual official high and low records may vary slightly from our data, if they occured in-between our weather recording intervals... More about our weather records

Advertising

Anchorage weather history for previous 24 hours

 ConditionsComfort  
Time TempWeatherWind HumidityBarometerVisibility
4:53 AM
Sun, Mar 1
28 °FIce fog.No wind89%30.53 "Hg0 mi
3:53 AM27 °FIce fog.3 mph89%30.53 "Hg0 mi
2:53 AM28 °FIce fog.5 mph93%30.51 "Hg0 mi
1:53 AM29 °FIce fog.No wind89%30.48 "Hg0 mi
12:53 AM28 °FIce fog.3 mph93%30.46 "Hg0 mi
11:53 PM
Sat, Feb 28
30 °FIce fog.7 mph89%30.45 "Hg0 mi
10:53 PM29 °FIce fog.No wind85%30.41 "Hg6 mi
9:53 PM31 °FOvercast.No wind89%30.41 "Hg7 mi
8:53 PM31 °FIce fog.6 mph89%30.38 "Hg5 mi
7:53 PM31 °FOvercast.3 mph85%30.37 "Hg7 mi
6:53 PM31 °FOvercast.5 mph85%30.32 "Hg10 mi
5:53 PM31 °FIce fog.6 mph89%30.30 "Hg3 mi
4:53 PM30 °FLight snow. Ice fog.5 mph85%30.30 "Hg1 mi
3:53 PM29 °FLight snow. Ice fog.3 mph85%30.28 "Hg2 mi
2:53 PM32 °FLight snow. Overcast.No wind73%30.27 "Hg7 mi
1:53 PM32 °FOvercast.3 mph73%30.27 "Hg10 mi
12:53 PM31 °FMostly cloudy.No wind64%30.28 "Hg10 mi
11:53 AM30 °FOvercast.No wind66%30.28 "Hg10 mi
10:53 AM30 °FOvercast.3 mph66%30.27 "Hg10 mi
9:53 AM29 °FOvercast.No wind72%30.27 "Hg10 mi
8:53 AM28 °FOvercast.5 mph72%30.28 "Hg10 mi
7:53 AM28 °FOvercast.3 mph72%30.29 "Hg10 mi
6:53 AM28 °FOvercast.3 mph72%30.31 "Hg10 mi
Weather by CustomWeather, © 2015

See weather overviewHow to use our weather pages